Location: Unspecified
(0.0000°N, 0.0000°E)
Time: 00:24:33
(UTC+00:00)

N. Korean satellite - Visible Passes

Search period start: 02 December 2021 00:00
Search period end: 12 December 2021 00:00
Orbit: 447 x 495 km, 97.3° (Epoch: 01 December)

Date Brightness Start Highest point End Pass type
(mag) Time Alt. Az. Time Alt. Az. Time Alt. Az.
02 Dec 8.6 04:27:21 10° NE 04:30:19 29° E 04:33:19 10° SSE visible
04 Dec 6.5 05:03:03 10° N 05:06:22 55° W 05:09:44 10° SSW visible
05 Dec 7.9 04:34:44 10° NNE 04:37:55 40° ESE 04:41:10 10° S visible
06 Dec 9.8 04:07:46 10° ENE 04:09:29 13° ESE 04:11:12 10° SE visible
07 Dec 6.9 05:10:43 10° N 05:13:54 39° W 05:17:10 10° SSW visible
08 Dec 7.1 04:42:05 10° NNE 04:45:26 56° ESE 04:48:49 10° S visible
09 Dec 9.4 04:14:34 10° ENE 04:16:57 18° ESE 04:19:21 10° SE visible
10 Dec 7.3 05:18:21 10° NNW 05:21:21 29° W 05:24:25 10° SW visible
11 Dec 6.5 04:49:24 10° NNE 04:52:49 80° E 04:56:19 10° S visible
